{"data":{"norad_id":68490,"epoch":"2026-09-20T02:32:42.287136Z","epoch_age_seconds":102871,"freshness":"FRESH","line1":"1 68490U 26067CC  26263.10604499  .00001399  00000+0  14679-3 0  9991","line2":"2 68490  97.7718 219.7884 0003648  79.7075 280.4554 14.91078596 25862","mean_motion":14.91078596,"eccentricity":0.0003648,"inclination_deg":97.7718,"raan_deg":219.7884,"arg_perigee_deg":79.7075,"mean_anomaly_deg":280.4554,"bstar":0.00014679,"rev_number":2586,"period_min":96.574386076158,"perigee_km":592.02744507925,"apogee_km":597.11473290097,"semimajor_km":6972.7080889901,"source":"CELESTRAK","updated_at":"2026-09-20T09:00:24.254347Z"}}